Location: Beneden-Haastrecht
(52.0012°N, 4.7557°E)
Time: 03:07:48
(UTC+00:00)

Cosmos 968 Rocket - Pass Details

Date: 24 October 2020
Orbit: 741 x 770 km, 74.0° (Epoch: 27 November)

Event Time Altitude Azimuth Distance (km) Brightness Sun altitude
Rises 18:15:37 0° 335° (NNW) 3,249 7.1 -17.3°
Reaches altitude 10° 18:18:01 10° 337° (NNW) 2,315 6.3 -17.6°
Maximum altitude 18:23:17 75° 63° (ENE) 793 3.4 -18.4°
Enters shadow 18:26:56 20° 147° (SSE) 1,706 5.0 -19.0°
